[keps] orb09267.amsat
Ray Hoad
r.hoad at att.net
Thu Sep 24 19:21:30 PDT 2009
SB KEPS @ AMSAT $ORB09267.O
Orbital Elements 09267.OSCAR
HR AMSAT ORBITAL ELEMENTS FOR OSCAR SATELLITES
FROM WA5QGD FORT WORTH,TX September 24, 2009
Send Subscribe/unsubscribe to KEPS at
http://www.amsat.org/mailman/listinfo/keps
BID: ORB09267.O
TO ALL RADIO AMATEURS BT
Satellite: AO-07
Catalog number: 07530
Epoch time: 09266.64966380
Element set: 0589
Inclination: 101.4228 deg
RA of node: 287.6976 deg
Eccentricity: 0.0012113
Arg of perigee: 075.8139 deg
Mean anomaly: 284.4277 deg
Mean motion: 12.53576612 rev/day
Decay rate: -2.7e-07 rev/day^2
Epoch rev: 59505
Checksum: 330
Satellite: FO-29
Catalog number: 24278
Epoch time: 09266.80386596
Element set: 138
Inclination: 098.5366 deg
RA of node: 127.5162 deg
Eccentricity: 0.0351354
Arg of perigee: 094.7707 deg
Mean anomaly: 269.3635 deg
Mean motion: 13.52945158 rev/day
Decay rate: 9.0e-08 rev/day^2
Epoch rev: 64708
Checksum: 353
Satellite: SO-33
Catalog number: 25509
Epoch time: 09267.23928596
Element set: 549
Inclination: 031.4297 deg
RA of node: 212.3954 deg
Eccentricity: 0.0354089
Arg of perigee: 124.5654 deg
Mean anomaly: 238.8897 deg
Mean motion: 14.28265184 rev/day
Decay rate: 1.5e-07 rev/day^2
Epoch rev: 57000
Checksum: 336
Satellite: RS-22
Catalog number: 27939
Epoch time: 09267.55197243
Element set: 897
Inclination: 097.9262 deg
RA of node: 138.7214 deg
Eccentricity: 0.0013436
Arg of perigee: 174.7247 deg
Mean anomaly: 185.4092 deg
Mean motion: 14.63341495 rev/day
Decay rate: -3.0e-08 rev/day^2
Epoch rev: 32010
Checksum: 319
Satellite: VO-52
Catalog number: 28650
Epoch time: 09266.78655337
Element set: 0326
Inclination: 097.7326 deg
RA of node: 325.0550 deg
Eccentricity: 0.0028232
Arg of perigee: 068.8562 deg
Mean anomaly: 291.5677 deg
Mean motion: 14.81619575 rev/day
Decay rate: -1.43e-06 rev/day^2
Epoch rev: 23724
Checksum: 333
/EX
SB KEPS @ AMSAT $ORB09267.D
Orbital Elements 09267.MICROS
HR AMSAT ORBITAL ELEMENTS FOR THE MICROSATS
FROM WA5QGD FORT WORTH,TX September 24, 2009
Send Subscribe/unsubscribe to KEPS at
http://www.amsat.org/mailman/listinfo/keps
BID: ORB09267.D
TO ALL RADIO AMATEURS BT
Satellite: AO-16
Catalog number: 20439
Epoch time: 09267.50489968
Element set: 709
Inclination: 098.2917 deg
RA of node: 231.4490 deg
Eccentricity: 0.0010086
Arg of perigee: 233.7439 deg
Mean anomaly: 126.2811 deg
Mean motion: 14.31833886 rev/day
Decay rate: 1.0e-07 rev/day^2
Epoch rev: 2736
Checksum: 315
Satellite: LO-19
Catalog number: 20442
Epoch time: 09266.84694949
Element set: 0625
Inclination: 098.2541 deg
RA of node: 237.7000 deg
Eccentricity: 0.0011066
Arg of perigee: 231.1320 deg
Mean anomaly: 128.8869 deg
Mean motion: 14.32068279 rev/day
Decay rate: 1.9e-07 rev/day^2
Epoch rev: 02743
Checksum: 306
Satellite: AO-27
Catalog number: 22825
Epoch time: 09266.85388774
Element set: 346
Inclination: 098.4473 deg
RA of node: 217.2178 deg
Eccentricity: 0.0008022
Arg of perigee: 339.9913 deg
Mean anomaly: 020.0949 deg
Mean motion: 14.29273067 rev/day
Decay rate: -8.6e-07 rev/day^2
Epoch rev: 83400
Checksum: 332
Satellite: IO-26
Catalog number: 22826
Epoch time: 09267.80659827
Element set: 77
Inclination: 098.4404 deg
RA of node: 218.8481 deg
Eccentricity: 0.0008614
Arg of perigee: 332.5353 deg
Mean anomaly: 027.5381 deg
Mean motion: 14.29526422 rev/day
Decay rate: -1.3e-07 rev/day^2
Epoch rev: 83424
Checksum: 315
Satellite: GO-32
Catalog number: 25397
Epoch time: 09266.78257704
Element set: 997
Inclination: 098.3237 deg
RA of node: 283.8310 deg
Eccentricity: 0.0001123
Arg of perigee: 011.5427 deg
Mean anomaly: 348.5754 deg
Mean motion: 14.23164028 rev/day
Decay rate: 1.2e-07 rev/day^2
Epoch rev: 58215
Checksum: 305
Satellite: NO-44
Catalog number: 26931
Epoch time: 09267.77078674
Element set: 272
Inclination: 067.0515 deg
RA of node: 167.7874 deg
Eccentricity: 0.0006739
Arg of perigee: 272.3991 deg
Mean anomaly: 087.6288 deg
Mean motion: 14.29566357 rev/day
Decay rate: -2.56e-06 rev/day^2
Epoch rev: 41681
Checksum: 363
Satellite: SO-50
Catalog number: 27607
Epoch time: 09267.82285157
Element set: 992
Inclination: 064.5574 deg
RA of node: 082.4827 deg
Eccentricity: 0.0055465
Arg of perigee: 180.7329 deg
Mean anomaly: 179.3688 deg
Mean motion: 14.71459919 rev/day
Decay rate: -5.5e-07 rev/day^2
Epoch rev: 36333
Checksum: 358
Satellite: CO-55
Catalog number: 27844
Epoch time: 09267.58021913
Element set: 674
Inclination: 098.7141 deg
RA of node: 275.3517 deg
Eccentricity: 0.0009079
Arg of perigee: 215.3853 deg
Mean anomaly: 144.6711 deg
Mean motion: 14.20656974 rev/day
Decay rate: 3.1e-07 rev/day^2
Epoch rev: 32337
Checksum: 318
Satellite: CO-57
Catalog number: 27848
Epoch time: 09267.57168255
Element set: 624
Inclination: 098.7174 deg
RA of node: 274.4070 deg
Eccentricity: 0.0009120
Arg of perigee: 219.2762 deg
Mean anomaly: 140.7756 deg
Mean motion: 14.20456540 rev/day
Decay rate: 1.0e-07 rev/day^2
Epoch rev: 32333
Checksum: 304
Satellite: AO-51
Catalog number: 28375
Epoch time: 09266.51937236
Element set: 492
Inclination: 098.0549 deg
RA of node: 270.4054 deg
Eccentricity: 0.0083127
Arg of perigee: 186.1857 deg
Mean anomaly: 173.8318 deg
Mean motion: 14.40652751 rev/day
Decay rate: 4.0e-08 rev/day^2
Epoch rev: 27511
Checksum: 317
Satellite: CO-56
Catalog number: 28941
Epoch time: 09267.69582761
Element set: 470
Inclination: 098.1266 deg
RA of node: 101.9850 deg
Eccentricity: 0.0048113
Arg of perigee: 111.2465 deg
Mean anomaly: 249.3966 deg
Mean motion: 16.01352507 rev/day
Decay rate: 1.94003e-03 rev/day^2
Epoch rev: 20307
Checksum: 312
Satellite: GENESAT1
Catalog number: 29655
Epoch time: 09266.47770912
Element set: 0822
Inclination: 040.0235 deg
RA of node: 286.5579 deg
Eccentricity: 0.0002312
Arg of perigee: 182.7418 deg
Mean anomaly: 177.3385 deg
Mean motion: 15.67605070 rev/day
Decay rate: 1.2700e-04 rev/day^2
Epoch rev: 15789
Checksum: 313
Satellite: CP3
Catalog number: 31129
Epoch time: 09267.66975367
Element set: 215
Inclination: 097.9793 deg
RA of node: 315.9322 deg
Eccentricity: 0.0102369
Arg of perigee: 337.6477 deg
Mean anomaly: 022.0270 deg
Mean motion: 14.52163412 rev/day
Decay rate: 6.3e-07 rev/day^2
Epoch rev: 12932
Checksum: 305
Satellite: CO-65
Catalog number: 32785
Epoch time: 09267.20631362
Element set: 479
Inclination: 097.9354 deg
RA of node: 330.3035 deg
Eccentricity: 0.0016131
Arg of perigee: 070.3831 deg
Mean anomaly: 289.9117 deg
Mean motion: 14.81519158 rev/day
Decay rate: 1.10e-06 rev/day^2
Epoch rev: 7610
Checksum: 297
Satellite: KKS-1
Catalog number: 33493
Epoch time: 09267.70651027
Element set: 784
Inclination: 098.0646 deg
RA of node: 020.3942 deg
Eccentricity: 0.0018839
Arg of perigee: 280.7358 deg
Mean anomaly: 079.1742 deg
Mean motion: 14.80732299 rev/day
Decay rate: 2.44e-06 rev/day^2
Epoch rev: 3619
Checksum: 323
Satellite: SOHLA-1
Catalog number: 33496
Epoch time: 09267.87194857
Element set: 750
Inclination: 098.0448 deg
RA of node: 015.6597 deg
Eccentricity: 0.0006234
Arg of perigee: 337.6047 deg
Mean anomaly: 022.4881 deg
Mean motion: 14.69446875 rev/day
Decay rate: -6.0e-08 rev/day^2
Epoch rev: 3591
Checksum: 338
/EX
SB KEPS @ AMSAT $ORB09267.W
Orbital Elements 09267.WEATHER
HR AMSAT ORBITAL ELEMENTS FOR WEATHER SATELLITES
FROM WA5QGD FORT WORTH,TX September 24, 2009
Send Subscribe/unsubscribe to KEPS at
http://www.amsat.org/mailman/listinfo/keps
BID: ORB09267.W
TO ALL RADIO AMATEURS BT
Satellite: NOAA-10
Catalog number: 16969
Epoch time: 09266.64433572
Element set: 0772
Inclination: 098.6860 deg
RA of node: 292.7331 deg
Eccentricity: 0.0011488
Arg of perigee: 271.0506 deg
Mean anomaly: 088.9342 deg
Mean motion: 14.27394413 rev/day
Decay rate: -7.2e-07 rev/day^2
Epoch rev: 19755
Checksum: 332
Satellite: NOAA-11
Catalog number: 19531
Epoch time: 09266.71464948
Element set: 0790
Inclination: 098.7821 deg
RA of node: 355.1361 deg
Eccentricity: 0.0011417
Arg of perigee: 184.4351 deg
Mean anomaly: 175.6717 deg
Mean motion: 14.14904356 rev/day
Decay rate: 1.59e-06 rev/day^2
Epoch rev: 08345
Checksum: 318
Satellite: NOAA-12
Catalog number: 21263
Epoch time: 09266.92945031
Element set: 0286
Inclination: 098.7750 deg
RA of node: 275.0474 deg
Eccentricity: 0.0011536
Arg of perigee: 217.0924 deg
Mean anomaly: 142.9458 deg
Mean motion: 14.25594172 rev/day
Decay rate: 3.1e-07 rev/day^2
Epoch rev: 95446
Checksum: 311
Satellite: MET-3/5
Catalog number: 21655
Epoch time: 09267.89660305
Element set: 658
Inclination: 082.5578 deg
RA of node: 136.0787 deg
Eccentricity: 0.0012774
Arg of perigee: 295.8852 deg
Mean anomaly: 064.0954 deg
Mean motion: 13.17021059 rev/day
Decay rate: 5.1e-07 rev/day^2
Epoch rev: 87075
Checksum: 335
Satellite: MET-2/21
Catalog number: 22782
Epoch time: 09267.68324793
Element set: 573
Inclination: 082.5428 deg
RA of node: 103.0919 deg
Eccentricity: 0.0023816
Arg of perigee: 068.9574 deg
Mean anomaly: 291.4122 deg
Mean motion: 13.83638293 rev/day
Decay rate: 9.0e-08 rev/day^2
Epoch rev: 81136
Checksum: 325
Satellite: OKEAN-4
Catalog number: 23317
Epoch time: 09267.77595925
Element set: 26
Inclination: 082.5380 deg
RA of node: 241.5409 deg
Eccentricity: 0.0023559
Arg of perigee: 039.8316 deg
Mean anomaly: 320.4636 deg
Mean motion: 14.82722307 rev/day
Decay rate: 2.97e-06 rev/day^2
Epoch rev: 80712
Checksum: 312
Satellite: NOAA-14
Catalog number: 23455
Epoch time: 09266.82742834
Element set: 0768
Inclination: 098.9025 deg
RA of node: 344.1283 deg
Eccentricity: 0.0008554
Arg of perigee: 270.4845 deg
Mean anomaly: 089.5325 deg
Mean motion: 14.13770769 rev/day
Decay rate: 2.07e-06 rev/day^2
Epoch rev: 75986
Checksum: 347
Satellite: NOAA-15
Catalog number: 25338
Epoch time: 09266.72094312
Element set: 0092
Inclination: 098.5942 deg
RA of node: 253.8141 deg
Eccentricity: 0.0011485
Arg of perigee: 127.2676 deg
Mean anomaly: 232.9557 deg
Mean motion: 14.24785163 rev/day
Decay rate: 8.4e-07 rev/day^2
Epoch rev: 59080
Checksum: 319
